Talkeetna, AK

6:35 AM AKST on February 14, 2016 (GMT -0900)
Talkeetna

Weather History for PATK - January, 2013

Change the Weather History Date:

Saturday, January 19, 2013

  Actual Average Record
Temperature  
Mean Temperature 14 °F -  
Max Temperature 26 °F 22 °F 44 °F (2001)
Min Temperature 1 °F 3 °F -36 °F (1989)
Degree Days  
Heating Degree Days 52    
Moisture  
Dew Point 9 °F    
Average Humidity 58    
Maximum Humidity 65    
Minimum Humidity 43    
Precipitation  
Precipitation 0.03 in - - ()
Sea Level Pressure  
Sea Level Pressure 30.18 in    
Wind  
Wind Speed 10 mph (NNE)    
Max Wind Speed 12 mph    
Max Gust Speed 20 mph    
Visibility 10 miles    
Events Snow    
Averages and records for this station are not official NWS values.
T = Trace of Precipitation, MM = Missing Value Source: NWS Daily Summary

Daily Weather History Graph

Daily Weather History Graph

Search for Another Location

Airport or City:

Trip Planner

Search our weather history database for the weather conditions in past years. The results will help you decide how hot, cold, wet, or windy it might be!

Date:

Astronomy

Jan. 19, 2013 Rise Set
Actual Time 9:58 AM AKST 4:24 PM AKST
Civil Twilight 9:01 AM AKST 5:22 PM AKST
Nautical Twilight 8:03 AM AKST 6:20 PM AKST
Astronomical Twilight 7:09 AM AKST 7:13 PM AKST
Moon 11:19 AM AKST (1/19) 3:14 AM AKST (1/19)
Length of Visible Light 8h 21m
Length of Day
6h 26m
First Quarter, 58% of the Moon is Illuminated
Jan 19
First Quarter
Jan 26
Full
Feb 3
Last Quarter
Feb 9
New
Feb 17
First Quarter

Hourly Weather History & Observations

Time (AKST) Temp. Windchill Dew Point Humidity Pressure Visibility Wind Dir Wind Speed Gust Speed Precip Events Conditions
12:53 AM 16.0 °F 2.9 °F 6.1 °F 65% 30.26 in 10.0 mi NNE 11.5 mph 19.6 mph N/A   Partly Cloudy
1:53 AM 17.1 °F 5.8 °F 6.1 °F 62% 30.26 in 10.0 mi North 9.2 mph 17.3 mph N/A   Overcast
2:53 AM 17.1 °F 4.3 °F 6.1 °F 62% 30.27 in 10.0 mi NNE 11.5 mph 17.3 mph N/A   Overcast
3:53 AM 17.1 °F 5.0 °F 7.0 °F 65% 30.27 in 10.0 mi North 10.4 mph - N/A   Overcast
4:53 AM 18.0 °F 7.7 °F 7.0 °F 62% 30.26 in 10.0 mi NNE 8.1 mph 16.1 mph N/A   Overcast
5:53 AM 19.0 °F 9.0 °F 7.0 °F 59% 30.25 in 10.0 mi North 8.1 mph - N/A   Overcast
6:53 AM 19.9 °F 7.9 °F 6.1 °F 55% 30.25 in 10.0 mi NNE 11.5 mph - N/A   Overcast
7:53 AM 19.9 °F 7.9 °F 7.0 °F 57% 30.25 in 10.0 mi NNE 11.5 mph - N/A   Overcast
8:53 AM 19.9 °F 8.6 °F 7.0 °F 57% 30.24 in 10.0 mi NNE 10.4 mph - N/A   Overcast
9:53 AM 19.9 °F 10.1 °F 8.1 °F 60% 30.24 in 10.0 mi NNE 8.1 mph - N/A   Overcast
10:53 AM 21.0 °F 9.3 °F 8.1 °F 57% 30.24 in 10.0 mi NNE 11.5 mph - N/A   Overcast
11:53 AM 21.0 °F 12.4 °F 9.0 °F 60% 30.24 in 10.0 mi North 6.9 mph 16.1 mph N/A   Overcast
12:53 PM 21.9 °F 12.5 °F 10.0 °F 60% 30.22 in 10.0 mi NNE 8.1 mph 16.1 mph N/A   Overcast
1:53 PM 21.9 °F 14.5 °F 10.9 °F 63% 30.20 in 10.0 mi North 5.8 mph - N/A   Overcast
2:53 PM 23.0 °F 14.7 °F 10.9 °F 60% 30.17 in 10.0 mi NNE 6.9 mph - 0.00 in   Overcast
3:53 PM 23.0 °F 13.1 °F 10.9 °F 60% 30.15 in 10.0 mi NNE 9.2 mph - N/A   Overcast
4:53 PM 23.0 °F 13.9 °F 10.9 °F 60% 30.13 in 10.0 mi NNE 8.1 mph - N/A   Overcast
5:53 PM 24.1 °F 15.2 °F 10.9 °F 57% 30.10 in 10.0 mi North 8.1 mph - N/A   Overcast
6:53 PM 24.1 °F 14.4 °F 12.0 °F 60% 30.08 in 10.0 mi North 9.2 mph - N/A   Overcast
7:53 PM 24.1 °F 17.0 °F 12.0 °F 60% 30.05 in 10.0 mi Variable 5.8 mph - N/A   Overcast
8:53 PM 25.0 °F 15.5 °F 10.9 °F 55% 30.03 in 10.0 mi NNE 9.2 mph 17.3 mph N/A   Overcast
9:53 PM 26.1 °F 18.4 °F 10.9 °F 53% 30.02 in 10.0 mi North 6.9 mph - N/A   Overcast
10:53 PM 25.0 °F 17.1 °F 12.0 °F 58% 30.01 in 10.0 mi North 6.9 mph - N/A   Overcast
11:53 PM 26.1 °F 18.4 °F 10.9 °F 53% 30.02 in 8.0 mi NNE 6.9 mph - 0.00 in Snow Light Snow